This is the latest recevied weather packets stored in our database for station/object DL9GRB-13. If no packets are shown the sender has not sent any weather packets the latest 10 day(s).
| Time | Temp. | Humidity | Pressure | Rain* | Wind** | Luminosity | Snow |
|---|---|---|---|---|---|---|---|
| 1778175609 | 13.33° C | 46% | 1016.9 hPa | 0 mm | - | 40 W/m² | - |
| 1778175429 | 13.89° C | 45% | 1016.7 hPa | 0 mm | - | 53 W/m² | - |
| 1778175249 | 13.89° C | 45% | 1016.7 hPa | 0 mm | - | 56 W/m² | - |
| 1778175069 | 13.89° C | 44% | 1016.7 hPa | 0 mm | - | 58 W/m² | - |
| 1778174889 | 13.89° C | 44% | 1016.8 hPa | 0 mm | - | 61 W/m² | - |
| 1778174709 | 13.89° C | 45% | 1016.7 hPa | 0 mm | - | 63 W/m² | - |
| 1778174529 | 13.89° C | 45% | 1016.5 hPa | 0 mm | - | 65 W/m² | - |
| 1778174349 | 13.89° C | 46% | 1016.7 hPa | 0 mm | - | 50 W/m² | - |
| 1778174169 | 13.33° C | 46% | 1016.6 hPa | 0 mm | - | 57 W/m² | - |
| 1778173989 | 13.89° C | 45% | 1016.5 hPa | 0 mm | - | 65 W/m² | - |
| 1778173809 | 13.89° C | 47% | 1016.4 hPa | 0 mm | - | 70 W/m² | - |
| 1778173629 | 13.89° C | 47% | 1016.5 hPa | 0 mm | - | 63 W/m² | - |
| 1778173449 | 13.33° C | 48% | 1016.4 hPa | 0 mm | - | 74 W/m² | - |
| 1778173269 | 13.33° C | 47% | 1016.6 hPa | 0 mm | - | 82 W/m² | - |
| 1778173089 | 13.33° C | 48% | 1016.6 hPa | 0 mm | - | 71 W/m² | - |
| 1778172909 | 13.89° C | 48% | 1016.2 hPa | 0 mm | - | 59 W/m² | - |
| 1778172729 | 13.89° C | 48% | 1016.1 hPa | 0 mm | - | 63 W/m² | - |
| 1778172549 | 13.89° C | 48% | 1016.2 hPa | 0 mm | - | 57 W/m² | - |
| 1778172369 | 13.89° C | 47% | 1016.4 hPa | 0 mm | - | 54 W/m² | - |
| 1778172189 | 14.44° C | 47% | 1016.3 hPa | 0 mm | - | 84 W/m² | - |
| 1778172009 | 14.44° C | 47% | 1016.2 hPa | 0 mm | - | 89 W/m² | - |
| 1778171829 | 14.44° C | 45% | 1016.5 hPa | 0 mm | - | 71 W/m² | - |
| 1778171649 | 14.44° C | 46% | 1016.3 hPa | 0 mm | - | 98 W/m² | - |
| 1778171469 | 14.44° C | 47% | 1016.4 hPa | 0 mm | - | 111 W/m² | - |
| 1778171289 | 15° C | 46% | 1016.2 hPa | 0 mm | - | 115 W/m² | - |
* Rain latest hour (hover to see other rain measurements)
** Current wind speed in m/s (hover to see current wind gust speed)